Regional Weather Roundup
Issued by NWS

Home | Current Version | Previous Version | Text Only | Print | Product List | Glossary On
Versions: 1 2 3 4 5 6 7 8 9 10 11 12 13 14 15 16 17 18 19 20 21 22 23 24 25 26 27 28 29 30 31 32 33 34 35 36 37 38 39 40 41 42 43 44 45 46 47 48 49 50
000
ASUS43 KFSD 191810
RWRSD

WEATHER ROUNDUP FOR SOUTH DAKOTA
NATIONAL WEATHER SERVICE SIOUX FALLS SD
100 PM CDT SAT AUG 19 2017

NOTE: "FAIR" INDICATES FEW OR NO CLOUDS BELOW 12,000 FEET WITH NO
SIGNIFICANT WEATHER AND/OR OBSTRUCTIONS TO VISIBILITY.


SDZ001>005-009-010-012>017-191900-
NORTHWEST AND NORTH CENTRAL SOUTH DAKOTA

CITY           SKY/WX    TMP DP  RH WIND       PRES   REMARKS
BUFFALO          N/A     90  40  17 NW20      29.79S
FAITH            N/A     90  50  25 NW6       29.81F
MOBRIDGE       SUNNY     81  64  56 S10       29.78F
$$

SDZ012>016-024>037-041>051-057-063-072>074-191900-
SOUTHWEST AND SOUTH CENTRAL SOUTH DAKOTA

CITY           SKY/WX    TMP DP  RH WIND       PRES   REMARKS
RAPID CTY ARPT SUNNY     93  45  19 NE12      29.87S
PIERRE         SUNNY     86  59  39 S16G24    29.79F
CUSTER         SUNNY     84  35  17 SW8       30.04F
ELLSWORTH AFB  SUNNY     91  46  21 NE9       29.87S
PHILIP         SUNNY     91  52  26 CALM      29.80F
PINE RIDGE     SUNNY     88  52  29 NW8       29.89F
SPEARFISH      FAIR      88  45  22 N14G20    29.94S
WINNER         FAIR      86  62  44 S15       29.85F
$$

SDZ004>011-016>023-039-040-191900-
NORTHEAST SOUTH DAKOTA

CITY           SKY/WX    TMP DP  RH WIND       PRES   REMARKS
ABERDEEN       SUNNY     79  62  56 SE17      29.85F
WATERTOWN      SUNNY     75  59  57 S12       29.91F
BROOKINGS      SUNNY     74  63  68 S13       29.94F
SISSETON         N/A     79  61  53 SE13      29.87F
$$

SDZ017-020-022-023-036>040-048>070-191900-
SOUTHEAST SOUTH DAKOTA

CITY           SKY/WX    TMP DP  RH WIND       PRES   REMARKS
SIOUX FALLS    SUNNY     77  64  64 SE8       29.94F
HURON          SUNNY     78  60  53 SE15G21   29.87F
CHAMBERLAIN    SUNNY     84  63  49 SE18      29.85F
MITCHELL       SUNNY     79  62  56 S15G22    29.90F
YANKTON        SUNNY     77  65  66 E9        29.93
$$

ABBREVIATIONS USED IN REMARKS
   TC - TEMPERATURE IN CELSIUS
  WCI - WIND CHILL INDEX
   HX - HEAT INDEX
  VSB - VISIBILITY





USA.gov is the U.S. government's official web portal to all federal, state and local government web resources and services.